Regional Weather Roundup
Issued by NWS State College, PA

Home | Current Version | Previous Version | Text Only | Print | Product List | Glossary On
Versions: 1 2 3 4 5 6 7 8 9 10 11 12 13 14 15 16 17 18 19 20 21 22 23 24 25 26 27 28 29 30 31 32 33 34 35 36 37 38 39 40 41 42 43 44 45 46 47 48 49 50
687
ASUS41 KCTP 061203
RWRCTP

REGIONAL WEATHER ROUNDUP
NATIONAL WEATHER SERVICE STATE COLLEGE PA
700 AM EST TUE DEC 06 2016

Note: "fair" indicates few or no clouds below 12,000 feet with no
significant weather and/or obstructions to visibility.

* = STATION THAT DOES NOT REPORT PRECIPITATION /E.G. RAIN...SNOW...ETC/
    THUNDER OR FOG.

PAZ002>004-007>009-013>016-020>023-029>032-061300-
WESTERN PENNSYLVANIA

CITY           SKY/WX    TMP DP  RH WIND       PRES   REMARKS
ERIE           CLOUDY    35  28  75 E10       29.98F
MEADVILLE      CLOUDY    33  26  75 E14G21    29.93F
FRANKLIN*        N/A     30  25  80 E8        29.96F
NEW CASTLE     FAIR      34  27  75 E8        29.94S
BEAVER COUNTY  CLEAR     34  28  80 E8        29.92
BUTLER*        PTCLDY    34  25  69 E14       29.96S
PITTSBURGH INT CLOUDY    37  28  70 E9        29.92R
PITTSBURGH     CLOUDY    35  25  66 E8        29.92S
INDIANA*       CLEAR     36  28  75 E10       29.99S
LATROBE        CLEAR     37  27  65 E17       29.94F
WASHINGTON CO* PTCLDY    36  27  69 NE7       29.91R
$$

PAZ004>006-010>012-017>019-024>028-033>037-041-042-045-046-049>053-061300-
CENTRAL PENNSYLVANIA

CITY           SKY/WX    TMP DP  RH WIND       PRES   REMARKS
BRADFORD       PTCLDY    29  27  92 SE9       29.99F
DUBOIS         CLOUDY    32  26  78 E10       29.98S
CLEARFIELD     CLOUDY    26  26 100 N8        30.03F
JOHNSTOWN      CLOUDY    32  26  78 SE8       29.96R
ALTOONA        PTCLDY    33  27  78 E6        30.04S
STATE COLLEGE  NOT AVBL
WILLIAMSPORT   CLOUDY    31  25  78 CALM      30.11F HAZE
SELINSGROVE    CLOUDY    26  26 100 NW3       30.11F
FT INDIANTOWN  CLOUDY    28  28 100 E2        30.10S
CAPITAL CITY   PTCLDY    34  29  82 CALM      30.11R
HARRISBURG     MOCLDY    33  30  88 CALM      30.11R
YORK           CLOUDY    30  30 100 CALM      30.09S
$$

PAZ038>040-043-044-047-048-054-055-060>062-067>071-061300-
EASTERN PENNSYLVANIA

CITY           SKY/WX    TMP DP  RH WIND       PRES   REMARKS
SCRANTON       PTCLDY    28  24  85 CALM      30.11S
MOUNT POCONO   CLOUDY    21  19  92 CALM      30.07S
ALLENTOWN      PTCLDY    29  25  85 CALM      30.13S
QUAKERTOWN*    CLOUDY    27  25  93 CALM      30.12F
READING        MOCLDY    30  26  85 N5        30.11S
LANCASTER      PTCLDY    30  30 100 CALM      30.11S
COATESVILLE    MOSUNNY   36  28  75 CALM      30.11S
POTTSTOWN      PTCLDY    28  26  92 CALM      30.14S
BLUE BELL      PTCLDY    30  30 100 CALM      30.11S
DOYLESTOWN     CLOUDY    34  29  82 NE5       30.12F
WILLOW GROVE   NOT AVBL
NORTH PHILA    CLOUDY    34  28  79 NE6       30.14F
PHILADELPHIA   CLOUDY    39  29  67 NE5       30.14R
$$




USA.gov is the U.S. government's official web portal to all federal, state and local government web resources and services.